Location: Labastide
(43.5185°N, 0.9810°E)
Time: 09:49:06
(UTC+00:00)

Daily predictions for brighter satellites

Satellite Brightness Start Highest point End
(mag) Time Altitude Azimuth Time Altitude Azimuth Time Altitude Azimuth
IRAS Rocket 4.3 19:37:29 10° SSE 19:42:53 64° ENE 19:48:20 10° N
SL-16 R/B 4.0 19:39:44 10° N 19:43:40 19° NE 19:47:34 10° E
SL-24 R/B 4.3 19:40:46 10° NNE 19:45:04 59° ESE 19:49:53 10° S
Okean 1 Rocket 3.2 19:42:25 10° S 19:46:48 84° W 19:51:15 10° N
Cosmos 2084 Rocket 4.0 19:47:23 10° NNW 19:51:26 45° NE 19:55:31 10° ESE
COSMOS 2406 4.1 19:51:24 10° SSE 19:56:16 29° ESE 20:01:09 10° NE
SL-4 R/B 4.4 19:55:24 10° WSW 19:57:02 12° SW 19:58:40 10° SSW
Cosmos 1782 2.8 19:54:48 10° SSE 19:58:09 44° E 20:01:31 10° NNE
Okean-O 3.9 19:55:12 10° ESE 19:58:48 26° ENE 20:02:25 10° N
CZ-4B R/B 4.1 19:54:55 10° S 19:58:55 75° WSW 20:02:58 10° NNW
CZ-4 R/B 1.2 19:55:22 10° S 19:58:59 81° WSW 20:02:38 10° NNW
MetOp-B 4.3 19:54:01 10° SSE 19:59:16 60° ENE 20:04:32 10° N
Cosmos 1980 Rocket 2.3 19:54:12 10° NNW 19:59:56 89° WSW 20:05:36 10° SSE
CSL-04 Rocket 4.3 19:58:36 10° S 20:04:01 60° WSW 20:09:23 10° NNW
ASTEX 1 3.9 20:00:06 10° S 20:05:00 62° W 20:09:56 10° NNW
Spot 2 Rocket 4.2 20:02:07 10° SE 20:06:41 38° ENE 20:11:19 10° N
Cosmos 1725 Rocket 4.0 20:01:43 10° S 20:07:58 76° E 20:14:12 10° N
Cosmos 2333 Rocket 3.6 20:07:03 10° N 20:11:46 26° NE 20:16:16 11° ESE
ERS-1 Rocket 3.0 20:07:36 10° SSE 20:12:36 90° NE 20:17:38 10° NNW
ATLAS 3B R/B 3.7 20:05:26 10° NW 20:12:43 48° WSW 20:19:33 10° S
USA 305 3.3 20:15:07 10° WNW 20:19:02 45° SW 20:21:49 15° SSE
Tsikada Rocket 4.1 20:13:46 10° N 20:19:51 59° E 20:25:38 11° SSE
Cosmos 2016 Rocket 4.0 20:16:18 10° S 20:22:34 89° E 20:28:47 10° N
Cosmos 1461 3.0 20:20:44 10° S 20:24:10 38° ESE 20:27:37 10° NE
Cosmos 2360 Rocket 3.9 20:21:22 10° N 20:25:31 20° NE 20:29:38 10° E
CZ-4B R/B 3.3 20:20:01 10° SSE 20:25:40 87° WSW 20:31:19 10° NNW
CZ-4C R/B 4.1 20:24:24 10° W 20:28:09 28° NW 20:32:45 10° NNE
Cosmos 1992 Rocket 3.9 20:23:40 10° S 20:28:49 68° ESE 20:34:00 10° NNE
Meteor 2-12 Rocket 4.4 20:26:01 10° N 20:32:09 82° E 20:38:06 11° S
ISS -1.3 20:32:55 10° WNW 20:35:37 22° N 20:38:21 10° NE
YAOGAN 11 4.2 20:31:31 10° NNE 20:35:54 56° E 20:40:13 10° S
Cosmos 1437 Rocket 3.3 20:36:40 24° SE 20:38:01 32° E 20:41:15 10° NNE
Cosmos 2219 Rocket 4.2 20:35:11 10° N 20:38:46 17° NE 20:42:22 10° E
Gbstr 26 Del rocket 4.2 20:40:23 10° WNW 20:44:56 34° SW 20:47:30 18° S
DEBRIS 4.2 20:42:53 10° W 20:45:43 46° N 20:53:16 10° ENE
Cosmos 2098 Rocket 4.3 20:44:23 22° ESE 20:45:54 26° E 20:49:32 10° NE
SL-08 R/B 3.5 20:41:25 10° N 20:46:14 75° WNW 20:50:54 10° SSW
NOSS 3-3 (A) 4.1 20:42:12 10° SW 20:47:15 64° NW 20:53:17 10° NNE
Cosmos 1626 Rocket 3.6 20:44:12 10° N 20:48:32 62° E 20:51:00 25° SSE
Cosmos 1743 4.2 20:46:28 10° NW 20:49:00 24° W 20:51:30 10° SSW
Terra 2.8 20:45:48 10° S 20:50:15 43° W 20:54:45 10° NNW
Delta 2 Rocket 4.5 20:52:04 10° SW 20:53:26 16° SSW 20:53:26 16° SSW
Cosmos 2151 3.1 20:52:29 10° N 20:56:31 52° ENE 20:58:09 31° SE
Cosmos 909 Rocket 4.4 20:51:16 10° SW 20:57:34 67° NW 21:04:00 10° NNE
Cosmos 2061 Rocket 4.1 20:51:26 10° S 20:57:38 79° W 21:03:57 10° N
Cosmos 2322 Rocket 3.2 20:52:33 10° N 20:57:43 35° NE 21:00:46 21° ESE
Cosmos 2237 4.4 20:53:27 10° NNW 20:59:09 67° WSW 21:03:03 21° S
Cosmos 2082 Rocket 3.4 20:53:44 10° SW 20:59:10 44° WNW 21:04:39 10° NNE
ADEOS 4.4 20:55:01 10° S 20:59:59 46° W 21:05:01 10° NNW
Cosmos 2369 4.3 20:59:32 10° NW 21:05:05 53° WSW 21:09:07 18° S
Cosmos 1375 Rocket 4.5 20:59:09 10° SSW 21:05:37 84° ESE 21:12:13 10° NE
CZ-4B R/B 2.5 21:09:42 47° SE 21:10:23 60° ENE 21:13:46 10° N
Milstar 3 4.5 21:06:42 10° SW 21:11:24 18° S 21:13:16 17° S
USA 186 2.4 21:11:04 34° SW 21:11:41 40° W 21:14:19 10° NNW
Cosmos 540 Rocket 4.4 21:13:17 26° ESE 21:13:39 27° E 21:17:55 10° NE
Okean O Rocket 2.2 21:11:15 20° SSW 21:13:56 49° W 21:18:07 10° NNW
DELTA 2 R/B (1) 3.6 21:16:35 10° W 21:22:02 56° S 21:24:09 35° SE
Cosmos 1805 3.2 21:19:18 10° N 21:22:21 45° ENE 21:22:21 45° ENE
Cosmos 2278 3.7 21:18:13 10° NNW 21:23:56 74° ENE 21:26:23 35° SE
Cosmos 1544 Rocket 4.1 21:22:18 16° SSW 21:25:36 54° W 21:29:51 10° N
CZ-2C R/B 3.0 21:27:14 37° NE 21:27:14 37° NE 21:29:18 10° N
Meteor 1-5 Rocket 4.4 21:21:18 10° N 21:27:01 60° ENE 21:29:21 35° SE
SL-16 R/B 2.2 21:22:45 10° NNW 21:28:27 82° WSW 21:30:55 35° SSE
Okean 1-7 Rocket 3.9 21:25:17 10° N 21:29:40 52° ENE 21:30:35 44° ESE
NOSS 3-4 (A) 4.0 21:27:47 10° NNW 21:34:35 70° NE 21:38:39 31° SE
Okean-O 4.1 21:32:20 17° SSW 21:34:56 31° W 21:38:51 10° NNW
Cosmos 2034 Rocket 4.4 21:32:54 34° SE 21:35:05 47° E 21:41:07 10° NNE
NOSS 3-4 (C) 4.0 21:28:25 10° NNW 21:35:14 69° NE 21:39:18 31° SE
Cosmos 1933 4.1 21:37:02 25° SW 21:38:50 45° WNW 21:42:31 10° N
Ariane Rocket 2.9 21:38:06 40° S 21:39:57 82° WSW 21:45:03 10° NNW
COSMOS 2406 4.3 21:34:51 10° SW 21:40:19 44° WNW 21:45:49 10° NNE
SPOT 3 Rocket 3.9 21:41:43 32° SSW 21:43:56 58° W 21:49:01 10° NNW
Nadezhda 4 Rocket 3.9 21:47:50 10° N 21:53:59 87° E 21:56:13 43° S
Cosmos 1763 Rocket 3.4 21:53:12 49° S 21:54:33 71° ESE 21:59:50 10° NNE
Helios 1B rocket 4.1 21:55:11 18° NE 21:55:11 18° NE 21:57:11 10° NNE
Okean 1 3.2 21:56:18 69° NNE 21:56:18 69° NNE 21:59:30 10° N
Cosmos 2333 Rocket 2.6 21:50:50 10° NNW 21:56:23 55° WSW 21:58:17 38° SSW
DNEPR-1 R/B 4.4 21:51:55 10° NW 21:57:39 78° WSW 21:59:54 44° SSE
Cosmos 1825 Rocket 3.4 21:54:31 10° N 21:58:53 89° ESE 21:59:17 73° S
Cosmos 1536 4.3 21:56:49 10° NNE 21:59:12 23° NE 21:59:12 23° NE
Cosmos 1833 4.1 21:57:58 41° S 22:00:00 78° ESE 22:05:38 10° NNE
Cosmos 1953 Rocket 3.6 22:00:40 10° N 22:04:56 59° ENE 22:04:56 59° ENE
Cosmos 44 4.5 22:00:13 10° NNW 22:05:16 39° NE 22:06:56 31° E
Cosmos 990 Rocket 4.0 22:00:53 10° NNW 22:06:02 64° ENE 22:06:54 54° ESE
CZ-4B R/B 4.2 22:05:27 33° SW 22:06:48 41° W 22:11:23 10° NNW
Cosmos 2360 Rocket 2.2 22:04:26 10° NNW 22:10:06 74° WSW 22:11:23 54° S
USA 290 3.7 22:12:10 35° NW 22:12:10 35° NW 22:14:43 10° N
Cosmos 2195 Rocket 4.4 22:06:00 10° N 22:12:14 82° E 22:13:53 52° SSE
ISS -1.5 22:10:30 10° NW 22:13:13 22° N 22:14:19 19° NE
Cosmos 2058 Rocket 3.5 22:14:25 49° ENE 22:14:25 49° ENE 22:18:07 10° NNE
BREEZE-M DEB (TANK) 4.4 22:12:25 10° NW 22:13:11 15° NNW 22:13:11 15° NNW
Cosmos 2026 Rocket 4.0 22:10:14 10° N 22:16:38 75° E 22:18:17 52° SSE
Cosmos 2333 4.2 22:12:07 10° NNW 22:17:51 78° WSW 22:19:00 58° S
Cosmos 1627 Rocket 4.5 22:13:55 10° N 22:20:20 76° E 22:21:56 53° SSE
Cosmos 1777 Rocket 4.4 22:15:22 10° NNW 22:20:26 51° WSW 22:21:18 46° SW
Helios 1A 3.3 22:19:21 10° NNE 22:22:30 55° NNE 22:22:30 55° NNE
Cosmos 2219 Rocket 2.1 22:17:50 10° NNW 22:23:32 88° ENE 22:24:29 64° SSE
Cosmos 1076 Rocket 3.8 22:23:59 10° NNW 22:28:03 58° W 22:28:03 58° W
Cosmos 1503 Rocket 4.2 22:24:00 10° NNW 22:29:04 56° WSW 22:29:38 53° SW
ARIANE 5 R/B 3.8 22:32:16 31° ENE 22:32:16 31° ENE 22:36:09 10° N
RESURS DK-1 4.0 22:29:20 10° N 22:32:35 25° NE 22:32:35 25° NE
ALOS 2 4.1 22:33:58 27° ENE 22:33:58 27° ENE 22:37:36 10° N
Cosmos 2322 Rocket 3.0 22:36:33 10° NW 22:41:45 38° WSW 22:42:34 36° SW
Cosmos 1354 Rocket 4.1 22:38:17 10° NNW 22:43:27 63° WSW 22:43:43 62° WSW
Cosmos 1271 Rocket 4.5 22:46:13 23° NNE 22:46:13 23° NNE 22:47:41 10° NNE
Cosmos 372 Rocket 4.0 22:42:40 10° NNW 22:47:45 65° ENE 22:47:53 65° ENE
Spot 4 4.3 22:51:57 50° ENE 22:51:57 50° ENE 22:56:30 10° N
Meteor 2-9 Rocket 4.3 22:50:18 10° N 22:55:38 56° ENE 22:55:55 56° E
CZ-2C R/B 4.3 22:58:57 20° E 23:00:08 22° ENE 23:04:04 10° NNE
Cosmos 2237 Rocket 3.7 22:55:27 10° N 23:00:16 27° NE 23:02:17 22° E
Aureole 1 Rocket 4.0 22:55:45 10° NNW 23:01:43 74° WSW 23:02:46 62° SSW
Cosmos 1092 Rocket 4.2 22:57:58 10° NNW 23:04:00 57° W 23:05:07 50° SW
Cosmos 2142 Rocket 4.4 23:05:17 63° SE 23:05:55 67° E 23:12:06 10° NNE
ARGOS Delta rocket 4.2 23:01:36 10° NNE 23:06:31 61° E 23:06:31 61° E
Cosmos 2180 Rocket 4.5 23:06:37 62° SE 23:07:13 66° E 23:13:29 10° NNE
Cosmos 1937 Rocket 3.8 23:04:19 10° NNW 23:09:21 54° ENE 23:09:26 54° ENE
Cosmos 2227 Rocket 4.1 23:11:04 16° E 23:11:04 16° E 23:13:32 10° ENE
Cosmos-2242 4.4 23:10:18 29° WNW 23:10:18 29° WNW 23:13:51 10° NNW
COSMOS 2428 2.7 23:06:02 10° NNW 23:11:44 71° ENE 23:12:10 68° E
NOSS 0 Rocket 4.2 23:08:11 10° NNW 23:14:18 59° ENE 23:15:26 51° ESE
Meteor 1-11 Rocket 4.0 23:09:54 10° N 23:15:27 54° ENE 23:15:46 53° E
Meteor 1-10 Rocket 4.3 23:17:23 64° ESE 23:17:35 65° E 23:23:27 10° NNE
Cosmos 2263 Rocket 4.4 23:20:54 11° E 23:20:54 11° E 23:21:59 10° ENE
Cosmos 1812 Rocket 4.2 23:25:18 53° NNE 23:25:18 53° NNE 23:28:44 10° N
Helios 1B rocket 4.4 23:29:08 19° NW 23:29:08 19° NW 23:30:33 10° NW
Meteor 1-27 Rocket 4.0 23:32:34 55° E 23:32:37 55° E 23:38:14 10° NNE
USA 234 3.1 23:26:48 10° NE 23:33:22 78° SE 23:34:29 63° SSW
Cosmos 2221 3.4 23:35:23 44° NNW 23:35:23 44° NNW 23:38:33 10° N
CZ-2C R/B 3.5 23:30:04 10° NNE 23:35:47 58° E 23:35:47 58° E
ACS3 Solar Sail 3.3 23:32:22 10° NE 23:36:48 21° E 23:37:20 21° E
Cosmos 2279 Rocket 4.5 23:37:48 45° WSW 23:39:01 51° WNW 23:45:08 10° N
Meteor 1-14 Rocket 4.4 23:36:28 10° NNW 23:41:51 55° W 23:41:51 55° W
Cosmos 1898 Rocket 3.9 23:37:43 10° NNW 23:42:13 53° WNW 23:42:13 53° WNW
Cosmos 2297 Rocket 2.1 23:43:29 75° E 23:43:29 75° E 23:48:57 10° NNE
Meteor 2-20 4.2 23:46:32 78° SSE 23:46:59 86° E 23:53:06 10° N
ISS -0.6 23:47:08 10° NW 23:47:15 11° NW 23:47:15 11° NW
